Total_Precipitation_Accumulation
2.30 1.91 1.56 1.88 2.07 2.19 1.76 1.80 1.58 1.29 1.27 1.32 0.89 0.47 0.24 0.12 0.08 0.06 0.07 0.07 0.06 0.04 0.04 0.09 0.11 0.07 0.06 0.06 0.06 0.08 0.15 0.19 0.24 0.23 0.25 0.26 0.27 0.19 0.14 0.15 0.17 0.16 0.24 0.44 0.44 0.31 0.39 0.47 0.59 0.37 0.34 0.28 0.23 0.36 0.37 0.46 0.49 0.51 0.47 0.39 0.47 0.60 0.45 0.60 0.73 0.88 0.90 0.70 0.89 0.41 0.46 0.55 0.62 0.95 0.75 0.58 0.41 0.52 0.50 0.53 0.37 0.56 0.40 0.43 0.43
1.12 1.05 1.20 1.62 1.83 1.77 1.64 1.34 1.46 1.31 1.21 0.98 0.73 0.31 0.13 0.09 0.08 0.07 0.07 0.06 0.06 0.04 0.04 0.08 0.13 0.12 0.15 0.12 0.13 0.14 0.22 0.19 0.16 0.18 0.23 0.34 0.34 0.20 0.37 0.29 0.23 0.40 0.43 0.57 0.99 0.60 0.43 0.75 0.45 0.32 0.44 0.29 0.33 0.31 0.47 0.45 0.47 0.52 0.50 0.39 0.55 0.44 0.54 0.68 0.69 0.73 0.91 0.82 0.93 0.96 0.55 0.43 0.60 0.56 0.69 0.57 0.57 0.51 0.57 0.55 0.36 0.71 0.62 0.53 0.57
0.89 1.04 1.62 1.47 1.41 1.30 1.38 1.25 1.03 1.45 1.28 0.96 0.79 0.22 0.12 0.07 0.07 0.06 0.04 0.07 0.04 0.09 0.10 0.14 0.25 0.31 0.30 0.23 0.20 0.21 0.26 0.34 0.29 0.23 0.31 0.25 0.30 0.35 0.30 0.25 0.43 0.53 0.58 0.61 0.52 0.73 0.71 0.83 0.40 0.38 0.44 0.47 0.39 0.39 0.43 0.41 0.48 0.50 0.50 0.52 0.67 0.66 0.64 0.78 0.65 0.84 1.04 0.90 1.22 0.86 0.78 0.59 0.46 0.61 0.60 0.48 0.38 0.51 0.63 0.54 0.56 0.55 0.56 0.73 0.48
0.80 0.76 0.93 1.26 1.29 0.99 1.18 0.94 1.13 0.88 0.82 0.66 0.65 0.23 0.08 0.08 0.08 0.08 0.11 0.09 0.17 0.14 0.27 0.30 0.21 0.24 0.23 0.14 0.21 0.33 0.46 0.33 0.35 0.31 0.34 0.38 0.25 0.33 0.31 0.38 0.49 0.68 0.74 0.85 0.94 0.77 0.75 0.57 0.50 0.52 0.40 0.63 0.57 0.49 0.37 0.44 0.53 0.56 0.37 0.58 0.51 0.66 0.45 0.49 0.71 0.83 1.07 1.08 0.70 0.54 0.59 0.42 0.51 0.67 0.54 0.72 0.58 0.60 0.67 0.68 0.69 0.63 0.61 0.57 0.62
0.45 0.56 0.74 1.07 1.35 0.77 0.71 0.90 0.97 0.52 0.50 0.52 0.50 0.23 0.08 0.10 0.15 0.15 0.31 0.24 0.31 0.24 0.28 0.29 0.36 0.19 0.20 0.21 0.42 0.59 0.65 0.92 0.64 0.49 0.31 0.43 0.50 0.32 0.38 0.53 0.66 0.69 0.65 0.87 0.93 1.07 0.77 0.67 0.63 0.58 0.61 0.65 0.59 0.56 0.48 0.61 0.54 0.46 0.49 0.51 0.38 0.48 0.42 0.44 0.69 0.79 0.87 0.77 0.82 0.86 0.57 0.35 0.39 0.75 0.79 0.71 0.64 0.63 0.67 0.86 0.69 0.63 0.82 0.62 0.62
0.39 0.44 0.60 0.76 0.78 0.99 0.72 0.61 0.68 0.69 0.33 0.49 0.53 0.19 0.09 0.13 0.18 0.19 0.17 0.27 0.33 0.26 0.39 0.40 0.45 0.26 0.42 0.62 0.62 0.86 0.54 0.71 0.65 0.48 0.69 0.58 0.56 0.59 0.66 0.71 1.00 1.00 0.84 1.02 0.96 0.93 0.93 0.72 0.76 0.74 0.80 0.63 0.66 0.54 0.72 0.55 0.54 0.53 0.43 0.51 0.45 0.32 0.37 0.37 0.43 0.54 0.56 0.65 1.12 1.27 0.55 0.57 0.41 0.47 0.80 0.69 0.68 0.80 0.80 0.86 0.71 0.70 0.53 0.60 0.54
0.24 0.47 0.52 0.63 0.68 0.85 0.40 0.45 0.58 0.37 0.18 0.23 0.22 0.24 0.18 0.20 0.13 0.16 0.17 0.28 0.39 0.50 0.53 0.70 0.66 0.53 0.71 0.60 0.58 0.73 0.77 0.86 0.95 0.93 0.75 0.77 0.59 0.76 0.66 0.90 0.97 0.96 0.69 1.14 0.77 0.79 0.92 0.85 0.88 0.94 0.77 0.74 0.71 0.57 0.47 0.43 0.47 0.42 0.39 0.43 0.39 0.23 0.32 0.17 0.33 0.17 0.40 0.90 1.10 1.44 0.93 0.53 0.34 0.45 0.70 0.75 0.80 0.87 0.59 0.54 0.69 0.68 0.48 0.43 0.41
0.25 0.37 0.57 0.70 0.44 0.31 0.20 0.25 0.38 0.18 0.18 0.28 0.22 0.15 0.15 0.15 0.16 0.13 0.26 0.30 0.34 0.35 0.48 0.60 0.90 0.88 0.83 0.64 0.67 0.91 0.92 0.76 0.86 0.90 0.81 0.96 0.59 0.76 0.72 0.87 0.99 0.78 0.89 1.01 0.73 0.84 0.56 0.66 0.94 1.00 0.74 0.68 0.55 0.68 0.42 0.50 0.38 0.51 0.31 0.36 0.46 0.40 0.26 0.30 0.26 0.12 0.18 0.54 1.02 0.83 0.99 0.91 0.30 0.37 0.50 0.51 0.53 0.58 0.63 0.69 0.70 0.58 0.78 0.63 0.55
0.23 0.36 0.47 0.42 0.33 0.20 0.22 0.25 0.19 0.18 0.14 0.19 0.22 0.20 0.23 0.14 0.22 0.27 0.25 0.37 0.32 0.39 0.57 0.50 0.51 0.74 0.96 1.03 1.04 0.90 0.84 0.92 0.91 0.83 0.57 0.61 0.75 0.85 0.82 1.02 0.71 0.97 0.93 0.87 0.89 0.74 0.67 0.62 0.67 0.75 0.67 0.59 0.52 0.53 0.42 0.43 0.60 0.56 0.46 0.39 0.41 0.34 0.24 0.25 0.15 0.29 0.53 0.46 0.37 0.58 0.67 0.67 0.26 0.43 0.51 0.51 0.46 0.47 0.48 0.42 0.48 0.60 0.48 0.49 0.32
0.20 0.22 0.24 0.19 0.35 0.23 0.22 0.14 0.12 0.18 0.18 0.09 0.13 0.19 0.13 0.18 0.31 0.28 0.30 0.26 0.51 0.55 0.56 0.48 0.53 0.57 0.90 1.00 0.93 0.89 0.88 0.90 0.96 1.02 0.90 0.88 0.84 0.92 0.80 0.81 0.91 1.00 0.98 0.98 0.87 0.85 0.72 0.70 0.67 0.57 0.62 0.54 0.83 0.63 0.59 0.58 0.50 0.41 0.51 0.70 0.41 0.28 0.31 0.27 0.22 0.19 0.53 0.43 0.38 0.40 0.48 0.61 0.31 0.48 0.29 0.44 0.31 0.46 0.80 0.50 0.59 0.43 0.33 0.33 0.35
0.23 0.25 0.20 0.23 0.27 0.14 0.15 0.22 0.13 0.10 0.14 0.13 0.20 0.19 0.35 0.31 0.35 0.29 0.32 0.47 0.41 0.58 0.55 0.64 1.01 0.95 0.80 1.01 1.13 0.94 0.90 1.00 1.25 1.24 1.22 0.97 1.01 0.86 0.97 0.89 0.79 0.81 0.95 0.83 0.98 0.60 0.61 0.56 0.57 0.56 0.58 0.69 0.86 0.91 0.82 0.93 0.68 0.52 0.53 0.54 0.40 0.32 0.35 0.30 0.34 0.29 0.41 0.44 0.39 0.53 0.49 0.37 0.35 0.50 0.34 0.22 0.31 0.23 0.39 0.51 0.58 0.51 0.36 0.17 0.14
0.24 0.19 0.19 0.18 0.37 0.12 0.12 0.13 0.14 0.10 0.12 0.12 0.09 0.14 0.30 0.31 0.38 0.44 0.71 0.71 0.55 0.72 0.77 0.73 0.84 1.08 1.02 1.16 1.11 1.01 0.88 1.02 1.21 1.37 1.30 0.93 0.94 0.94 1.25 0.96 0.94 0.85 0.70 0.80 1.03 0.53 0.58 0.83 0.72 0.59 0.68 0.82 1.01 0.78 0.87 0.81 0.77 0.59 0.49 0.43 0.20 0.16 0.18 0.31 0.35 0.38 0.41 0.35 0.37 0.43 0.31 0.37 0.38 0.23 0.32 0.36 0.25 0.23 0.37 0.44 0.43 0.21 0.11 0.18 0.13
0.17 0.18 0.18 0.16 0.20 0.15 0.13 0.13 0.10 0.12 0.07 0.13 0.17 0.16 0.27 0.33 0.39 0.33 0.64 0.68 0.63 0.69 0.82 0.71 0.83 0.62 0.91 1.02 0.77 0.89 1.01 1.00 0.97 1.21 1.08 0.82 0.90 1.10 0.92 0.92 0.74 0.69 0.82 0.72 0.87 0.72 0.80 0.69 0.63 0.64 0.74 0.69 0.68 0.88 0.93 0.87 0.64 0.41 0.39 0.33 0.21 0.16 0.15 0.23 0.36 0.25 0.39 0.56 0.75 0.40 0.39 0.47 0.60 0.15 0.18 0.28 0.29 0.15 0.14 0.23 0.17 0.09 0.11 0.10 0.09
0.14 0.18 0.19 0.20 0.10 0.32 0.12 0.11 0.08 0.10 0.11 0.21 0.14 0.15 0.39 0.47 0.39 0.68 0.69 0.80 0.65 1.03 0.88 0.89 0.84 0.88 0.85 0.87 1.04 0.94 1.33 1.17 1.06 0.97 0.93 0.68 0.97 1.09 0.92 0.71 0.71 0.70 0.67 0.64 0.60 0.68 0.82 0.59 0.67 0.67 0.60 0.65 0.46 0.70 0.85 0.70 0.53 0.52 0.47 0.32 0.23 0.16 0.24 0.18 0.15 0.24 0.55 0.76 0.20 0.41 0.32 0.35 0.59 0.05 0.18 0.20 0.18 0.20 0.18 0.17 0.12 0.09 0.06 0.06 0.07
0.15 0.25 0.17 0.16 0.26 0.24 0.25 0.14 0.16 0.13 0.15 0.11 0.23 0.27 0.33 0.54 0.60 0.61 0.86 0.67 0.76 1.31 1.00 0.82 0.93 0.89 0.93 0.96 1.15 0.98 1.13 0.78 0.79 0.80 0.82 0.80 0.71 0.85 0.76 0.76 0.58 0.52 0.51 0.46 0.46 0.52 0.44 0.47 0.69 0.70 0.43 0.56 0.73 0.59 0.69 0.59 0.53 0.47 0.35 0.23 0.26 0.13 0.09 0.30 0.22 0.22 0.23 0.30 0.17 0.20 0.37 0.29 0.06 0.07 0.29 0.17 0.14 0.14 0.20 0.14 0.10 0.08 0.05 0.03 0.03
0.16 0.16 0.20 0.17 0.16 0.27 0.26 0.53 0.22 0.23 0.20 0.19 0.19 0.30 0.39 0.65 0.66 0.76 0.72 0.78 0.80 0.84 0.89 0.92 0.72 0.68 0.83 0.86 1.05 0.90 1.13 0.72 0.76 0.82 0.86 0.78 0.86 0.80 0.55 0.55 0.48 0.48 0.36 0.48 0.42 0.42 0.52 0.58 0.65 0.57 0.47 0.55 0.71 0.60 0.62 0.59 0.50 0.33 0.30 0.20 0.26 0.14 0.10 0.07 0.17 0.35 0.26 0.15 0.26 0.25 0.22 0.50 0.09 0.07 0.21 0.18 0.11 0.12 0.15 0.09 0.08 0.08 0.11 0.10 0.03
0.15 0.14 0.20 0.14 0.20 0.14 0.20 0.38 0.31 0.30 0.22 0.22 0.40 0.39 0.46 0.59 0.77 0.74 0.60 0.77 0.65 0.86 0.90 0.72 0.70 0.63 0.80 0.73 0.87 0.86 0.68 0.85 0.60 0.69 0.88 0.66 0.59 0.72 0.61 0.64 0.52 0.37 0.38 0.44 0.42 0.47 0.54 0.59 0.56 0.63 0.45 0.54 0.57 0.62 0.65 0.50 0.39 0.24 0.27 0.17 0.22 0.13 0.14 0.05 0.37 0.33 0.15 0.15 0.09 0.28 0.31 0.31 0.07 0.09 0.18 0.09 0.06 0.12 0.15 0.07 0.06 0.06 0.10 0.07 0.06
0.13 0.16 0.11 0.20 0.23 0.19 0.32 0.28 0.29 0.38 0.81 0.50 0.63 0.64 0.79 0.60 0.54 0.77 0.56 0.79 0.78 0.67 0.61 0.52 0.63 0.65 0.60 0.53 0.74 0.68 0.83 0.66 0.83 0.78 0.59 0.63 0.68 0.56 0.56 0.56 0.32 0.26 0.24 0.34 0.47 0.58 0.55 0.52 0.47 0.40 0.39 0.49 0.57 0.67 0.56 0.35 0.33 0.37 0.27 0.20 0.21 0.15 0.13 0.10 0.13 0.10 0.24 0.20 0.13 0.15 0.21 0.11 0.04 0.10 0.11 0.14 0.12 0.13 0.07 0.05 0.08 0.08 0.06 0.07 0.04
0.21 0.32 0.22 0.30 0.21 0.22 0.22 0.33 0.26 0.27 0.42 0.55 0.76 0.57 0.74 0.62 0.64 0.51 0.88 0.61 0.75 0.69 0.63 0.46 0.46 0.62 0.62 0.77 1.09 0.67 0.68 0.61 0.78 0.64 0.51 0.67 0.49 0.33 0.47 0.32 0.30 0.33 0.23 0.40 0.66 0.59 0.56 0.42 0.39 0.21 0.32 0.43 0.33 0.40 0.46 0.37 0.25 0.29 0.22 0.16 0.20 0.14 0.17 0.18 0.19 0.12 0.17 0.17 0.15 0.22 0.15 0.03 0.05 0.06 0.12 0.15 0.09 0.08 0.10 0.10 0.09 0.09 0.06 0.11 0.08
0.24 0.19 0.42 0.21 0.30 0.35 0.26 0.25 0.30 0.42 0.69 0.64 0.95 0.60 0.68 0.67 0.84 0.71 0.72 0.61 0.63 0.62 0.50 0.60 0.65 0.66 0.62 0.74 1.02 1.05 0.84 0.88 0.78 0.67 0.53 0.53 0.44 0.38 0.43 0.35 0.20 0.31 0.32 0.35 0.39 0.44 0.38 0.30 0.24 0.23 0.27 0.44 0.27 0.29 0.46 0.34 0.27 0.25 0.23 0.16 0.18 0.15 0.39 0.29 0.16 0.22 0.12 0.07 0.12 0.16 0.01 0.02 0.02 0.03 0.07 0.10 0.12 0.13 0.08 0.12 0.10 0.11 0.12 0.13 0.10
0.22 0.28 0.36 0.26 0.33 0.28 0.18 0.24 0.39 0.46 0.40 0.55 0.38 0.49 0.43 0.69 0.69 0.79 0.81 0.60 0.48 0.58 0.51 0.59 0.51 0.76 0.74 0.83 0.73 0.72 0.55 0.67 0.60 0.62 0.58 0.44 0.40 0.43 0.34 0.19 0.20 0.34 0.19 0.41 0.42 0.28 0.18 0.25 0.31 0.18 0.22 0.25 0.17 0.25 0.25 0.27 0.31 0.21 0.15 0.21 0.11 0.38 0.15 0.30 0.08 0.12 0.19 0.11 0.09 0.14 0.00 0.01 0.02 0.02 0.05 0.08 0.12 0.13 0.10 0.08 0.15 0.13 0.12 0.11 0.15
0.22 0.29 0.33 0.33 0.33 0.55 0.25 0.41 0.40 0.73 0.59 0.48 0.53 0.58 0.70 0.59 0.58 0.61 0.48 0.56 0.54 0.60 0.55 0.41 0.67 0.51 0.67 0.54 0.70 0.54 0.46 0.93 0.59 0.46 0.57 0.41 0.52 0.34 0.26 0.26 0.29 0.24 0.29 0.35 0.36 0.15 0.14 0.25 0.20 0.16 0.23 0.17 0.07 0.35 0.28 0.12 0.16 0.15 0.15 0.11 0.30 0.27 0.25 0.17 0.17 0.07 0.14 0.11 0.16 0.06 0.00 0.00 0.01 0.04 0.06 0.05 0.07 0.09 0.13 0.08 0.08 0.12 0.17 0.13 0.12
0.27 0.24 0.22 0.25 0.22 0.33 0.51 0.60 0.45 0.45 0.45 0.42 0.37 0.48 0.42 0.53 0.58 0.41 0.37 0.50 0.54 0.37 0.46 0.31 0.43 0.36 0.46 0.35 0.53 0.55 0.42 0.47 0.55 0.40 0.44 0.37 0.23 0.24 0.18 0.19 0.18 0.20 0.22 0.22 0.10 0.08 0.16 0.17 0.10 0.17 0.15 0.07 0.31 0.21 0.22 0.24 0.18 0.11 0.06 0.15 0.15 0.10 0.04 0.11 0.11 0.11 0.13 0.13 0.17 0.00 0.00 0.00 0.01 0.05 0.07 0.04 0.08 0.10 0.09 0.05 0.05 0.08 0.10 0.12 0.10
0.11 0.13 0.15 0.19 0.41 0.19 0.27 0.15 0.24 0.38 0.58 0.70 0.54 0.33 0.36 0.45 0.43 0.50 0.39 0.38 0.26 0.32 0.29 0.45 0.37 0.35 0.32 0.64 0.51 0.34 0.34 0.65 0.35 0.29 0.27 0.25 0.36 0.19 0.15 0.18 0.13 0.12 0.11 0.18 0.09 0.09 0.08 0.09 0.05 0.07 0.12 0.27 0.34 0.29 0.16 0.13 0.11 0.18 0.20 0.06 0.04 0.06 0.04 0.06 0.08 0.07 0.09 0.22 0.08 0.00 0.01 0.01 0.01 0.04 0.08 0.09 0.08 0.03 0.06 0.04 0.03 0.06 0.09 0.13 0.13
0.11 0.15 0.23 0.28 0.19 0.18 0.40 0.37 0.18 0.47 0.39 0.69 0.40 0.45 0.42 0.41 0.38 0.35 0.30 0.35 0.32 0.20 0.22 0.19 0.27 0.27 0.33 0.60 0.32 0.25 0.37 0.38 0.28 0.44 0.49 0.40 0.59 0.43 0.53 0.57 0.55 0.57 0.31 0.53 0.47 0.46 0.54 0.39 0.31 0.27 0.23 0.19 0.09 0.18 0.13 0.08 0.10 0.10 0.04 0.04 0.01 0.02 0.04 0.02 0.03 0.02 0.02 0.16 0.09 0.00 0.00 0.00 0.01 0.02 0.14 0.13 0.10 0.07 0.08 0.04 0.06 0.08 0.12 0.10 0.08
0.06 0.13 0.11 0.19 0.14 0.16 0.22 0.32 0.34 0.43 0.55 0.82 0.23 0.15 0.29 0.24 0.20 0.28 0.25 0.22 0.19 0.18 0.12 0.17 0.22 0.43 0.37 0.16 0.14 0.16 0.22 0.24 0.30 0.28 0.43 0.46 0.67 0.80 0.49 0.51 0.40 0.62 0.56 0.74 0.39 0.38 0.72 0.23 0.25 0.32 0.22 0.15 0.18 0.09 0.06 0.06 0.05 0.06 0.05 0.01 0.01 0.01 0.01 0.01 0.04 0.03 0.01 0.04 0.04 0.00 0.02 0.00 0.04 0.06 0.11 0.14 0.10 0.09 0.11 0.04 0.06 0.09 0.09 0.11 0.05
0.13 0.11 0.26 0.08 0.12 0.23 0.21 0.25 0.33 0.33 0.14 0.37 0.17 0.23 0.37 0.14 0.26 0.17 0.15 0.18 0.22 0.11 0.13 0.14 0.34 0.23 0.16 0.26 0.12 0.13 0.12 0.20 0.17 0.22 0.40 0.78 1.04 0.56 0.72 0.83 0.89 0.87 0.45 0.58 0.23 0.39 0.49 0.22 0.18 0.28 0.14 0.16 0.08 0.05 0.04 0.08 0.04 0.02 0.03 0.01 0.01 0.01 0.01 0.01 0.00 0.02 0.07 0.02 0.01 0.00 0.03 0.03 0.03 0.04 0.07 0.11 0.14 0.09 0.09 0.10 0.08 0.08 0.07 0.07 0.06
0.04 0.06 0.07 0.09 0.12 0.12 0.16 0.16 0.12 0.15 0.17 0.25 0.16 0.19 0.25 0.14 0.08 0.10 0.12 0.10 0.12 0.13 0.08 0.09 0.06 0.10 0.14 0.10 0.05 0.14 0.14 0.03 0.11 0.15 0.13 0.53 0.53 0.47 0.16 0.58 0.57 0.25 0.20 0.18 0.36 0.43 0.23 0.26 0.40 0.20 0.20 0.12 0.05 0.03 0.12 0.03 0.02 0.01 0.06 0.04 0.02 0.01 0.01 0.01 0.01 0.02 0.05 0.01 0.04 0.03 0.00 0.01 0.03 0.07 0.10 0.12 0.15 0.19 0.08 0.11 0.09 0.09 0.09 0.07 0.09
0.04 0.07 0.05 0.09 0.10 0.20 0.14 0.15 0.15 0.09 0.12 0.12 0.11 0.17 0.13 0.08 0.14 0.15 0.11 0.08 0.10 0.08 0.07 0.04 0.19 0.12 0.10 0.06 0.04 0.04 0.03 0.08 0.06 0.06 0.27 0.42 0.31 0.62 0.71 0.43 0.28 0.27 0.14 0.26 0.09 0.20 0.25 0.25 0.33 0.39 0.13 0.27 0.05 0.12 0.03 0.06 0.01 0.03 0.02 0.03 0.01 0.02 0.00 0.01 0.01 0.01 0.02 0.04 0.06 0.10 0.02 0.01 0.06 0.08 0.08 0.12 0.17 0.16 0.12 0.15 0.10 0.08 0.09 0.04 0.05
0.02 0.02 0.03 0.04 0.07 0.05 0.06 0.08 0.04 0.17 0.07 0.11 0.08 0.08 0.09 0.19 0.07 0.06 0.06 0.07 0.04 0.07 0.06 0.08 0.03 0.10 0.06 0.07 0.06 0.03 0.14 0.14 0.15 0.15 0.22 0.22 0.31 0.08 0.20 0.32 0.27 0.35 0.29 0.16 0.18 0.17 0.30 0.20 0.12 0.22 0.15 0.09 0.06 0.29 0.05 0.03 0.05 0.01 0.01 0.01 0.01 0.02 0.00 0.00 0.01 0.00 0.01 0.03 0.04 0.04 0.01 0.03 0.03 0.08 0.11 0.13 0.08 0.16 0.12 0.12 0.23 0.22 0.09 0.15 0.12
0.02 0.02 0.02 0.03 0.04 0.03 0.03 0.04 0.05 0.07 0.09 0.09 0.05 0.06 0.06 0.06 0.04 0.07 0.08 0.12 0.05 0.08 0.05 0.04 0.04 0.04 0.06 0.15 0.14 0.06 0.11 0.10 0.16 0.10 0.08 0.07 0.11 0.12 0.18 0.27 0.30 0.39 0.22 0.17 0.12 0.19 0.14 0.09 0.13 0.21 0.16 0.09 0.27 0.05 0.02 0.02 0.01 0.02 0.01 0.01 0.01 0.01 0.01 0.01 0.02 0.01 0.02 0.01 0.04 0.05 0.08 0.07 0.05 0.10 0.11 0.10 0.07 0.08 0.20 0.19 0.23 0.25 0.16 0.11 0.17
0.01 0.01 0.02 0.02 0.03 0.02 0.02 0.02 0.05 0.05 0.03 0.05 0.06 0.06 0.05 0.03 0.03 0.03 0.03 0.04 0.02 0.02 0.02 0.03 0.03 0.01 0.03 0.09 0.09 0.07 0.11 0.18 0.14 0.16 0.18 0.24 0.22 0.14 0.25 0.19 0.23 0.13 0.12 0.17 0.22 0.21 0.16 0.22 0.08 0.04 0.16 0.17 0.18 0.05 0.03 0.07 0.01 0.02 0.02 0.01 0.00 0.01 0.01 0.02 0.01 0.00 0.00 0.00 0.00 0.05 0.04 0.13 0.13 0.09 0.13 0.10 0.13 0.14 0.16 0.16 0.24 0.36 0.34 0.35 0.40
0.00 0.00 0.01 0.02 0.01 0.01 0.02 0.02 0.02 0.03 0.03 0.03 0.04 0.03 0.07 0.03 0.05 0.02 0.02 0.02 0.02 0.03 0.06 0.01 0.01 0.01 0.05 0.03 0.16 0.11 0.37 0.21 0.16 0.06 0.06 0.14 0.20 0.23 0.12 0.09 0.19 0.27 0.09 0.12 0.13 0.13 0.18 0.24 0.34 0.10 0.14 0.12 0.06 0.02 0.02 0.04 0.02 0.01 0.01 0.01 0.00 0.00 0.00 0.00 0.00 0.01 0.00 0.01 0.00 0.02 0.05 0.10 0.15 0.17 0.10 0.08 0.25 0.20 0.19 0.16 0.21 0.25 0.11 0.16 0.08
0.00 0.01 0.01 0.01 0.01 0.01 0.01 0.02 0.02 0.02 0.02 0.03 0.02 0.03 0.03 0.01 0.03 0.02 0.02 0.02 0.02 0.04 0.01 0.00 0.01 0.01 0.03 0.10 0.06 0.10 0.16 0.27 0.09 0.09 0.09 0.10 0.11 0.16 0.13 0.10 0.10 0.09 0.09 0.14 0.28 0.20 0.19 0.13 0.14 0.11 0.11 0.10 0.04 0.03 0.04 0.03 0.01 0.01 0.01 0.00 0.01 0.00 0.00 0.01 0.00 0.00 0.02 0.01 0.03 0.02 0.03 0.08 0.10 0.15 0.12 0.04 0.07 0.07 0.14 0.16 0.18 0.24 0.19 0.18 0.15
0.00 0.00 0.00 0.00 0.01 0.00 0.00 0.01 0.01 0.02 0.02 0.02 0.02 0.02 0.01 0.01 0.00 0.01 0.01 0.03 0.02 0.01 0.00 0.01 0.06 0.06 0.02 0.08 0.09 0.09 0.10 0.11 0.09 0.13 0.09 0.14 0.15 0.07 0.12 0.12 0.08 0.14 0.17 0.09 0.24 0.20 0.17 0.21 0.08 0.10 0.09 0.04 0.04 0.03 0.01 0.02 0.01 0.01 0.00 0.00 0.00 0.00 0.00 0.00 0.00 0.00 0.00 0.01 0.01 0.01 0.02 0.04 0.10 0.06 0.19 0.20 0.04 0.11 0.09 0.12 0.17 0.14 0.20 0.17 0.20
0.00 0.00 0.00 0.00 0.01 0.00 0.00 0.00 0.00 0.02 0.02 0.01 0.01 0.01 0.01 0.02 0.01 0.00 0.01 0.03 0.02 0.03 0.02 0.01 0.03 0.05 0.08 0.06 0.08 0.14 0.10 0.16 0.12 0.12 0.12 0.11 0.14 0.33 0.16 0.22 0.12 0.15 0.24 0.18 0.20 0.23 0.30 0.23 0.13 0.22 0.05 0.06 0.03 0.03 0.01 0.01 0.01 0.01 0.01 0.00 0.00 0.00 0.00 0.00 0.01 0.00 0.01 0.02 0.04 0.02 0.02 0.01 0.04 0.06 0.07 0.09 0.16 0.10 0.05 0.13 0.15 0.27 0.12 0.14 0.16
0.00 0.00 0.00 0.00 0.00 0.00 0.00 0.01 0.01 0.01 0.02 0.01 0.00 0.01 0.02 0.01 0.01 0.01 0.01 0.01 0.03 0.02 0.10 0.04 0.03 0.04 0.06 0.04 0.07 0.07 0.07 0.06 0.10 0.11 0.10 0.15 0.10 0.10 0.17 0.15 0.14 0.18 0.11 0.25 0.29 0.13 0.45 0.14 0.11 0.08 0.05 0.04 0.03 0.03 0.02 0.00 0.01 0.01 0.00 0.00 0.00 0.00 0.00 0.03 0.00 0.00 0.00 0.01 0.05 0.10 0.05 0.05 0.02 0.02 0.06 0.05 0.08 0.20 0.02 0.08 0.08 0.08 0.07 0.16 0.14
0.00 0.00 0.00 0.00 0.00 0.00 0.00 0.00 0.01 0.01 0.01 0.01 0.01 0.01 0.01 0.01 0.01 0.02 0.02 0.04 0.03 0.03 0.05 0.03 0.03 0.03 0.06 0.03 0.04 0.05 0.05 0.09 0.14 0.16 0.19 0.09 0.15 0.16 0.28 0.27 0.21 0.19 0.22 0.13 0.41 0.20 0.10 0.13 0.25 0.10 0.05 0.08 0.03 0.03 0.02 0.02 0.01 0.01 0.01 0.00 0.00 0.00 0.00 0.00 0.00 0.01 0.01 0.01 0.03 0.02 0.05 0.04 0.06 0.03 0.09 0.06 0.08 0.05 0.14 0.04 0.04 0.05 0.03 0.06 0.09
0.00 0.00 0.00 0.00 0.00 0.00 0.00 0.00 0.00 0.02 0.03 0.00 0.01 0.02 0.01 0.02 0.01 0.01 0.02 0.03 0.02 0.02 0.02 0.02 0.03 0.01 0.03 0.02 0.03 0.06 0.08 0.11 0.14 0.11 0.11 0.14 0.10 0.12 0.11 0.15 0.10 0.21 0.19 0.23 0.27 0.26 0.25 0.10 0.11 0.18 0.03 0.05 0.03 0.01 0.00 0.00 0.02 0.01 0.00 0.00 0.00 0.00 0.00 0.00 0.00 0.01 0.01 0.03 0.01 0.01 0.04 0.04 0.02 0.01 0.01 0.03 0.05 0.05 0.09 0.17 0.21 0.17 0.12 0.05 0.09
0.00 0.00 0.00 0.00 0.00 0.00 0.00 0.00 0.01 0.02 0.01 0.01 0.03 0.03 0.04 0.01 0.01 0.01 0.02 0.01 0.02 0.02 0.02 0.06 0.06 0.08 0.02 0.01 0.02 0.07 0.03 0.12 0.07 0.10 0.18 0.22 0.33 0.09 0.25 0.18 0.15 0.18 0.44 0.23 0.30 0.32 0.21 0.31 0.10 0.12 0.09 0.04 0.02 0.01 0.00 0.00 0.00 0.00 0.00 0.00 0.00 0.00 0.00 0.00 0.00 0.01 0.01 0.03 0.02 0.03 0.02 0.01 0.00 0.01 0.01 0.00 0.01 0.06 0.04 0.06 0.10 0.16 0.13 0.13 0.08
0.00 0.00 0.00 0.00 0.00 0.01 0.00 0.00 0.01 0.00 0.01 0.01 0.05 0.03 0.03 0.02 0.03 0.03 0.05 0.03 0.05 0.02 0.06 0.05 0.10 0.04 0.00 0.01 0.01 0.05 0.04 0.03 0.06 0.11 0.07 0.12 0.20 0.19 0.18 0.21 0.19 0.26 0.31 0.37 0.21 0.29 0.14 0.20 0.11 0.07 0.07 0.04 0.02 0.01 0.00 0.00 0.00 0.00 0.00 0.00 0.00 0.00 0.00 0.00 0.01 0.01 0.00 0.02 0.00 0.01 0.00 0.00 0.00 0.01 0.00 0.00 0.00 0.02 0.05 0.04 0.04 0.09 0.12 0.24 0.12
0.00 0.00 0.00 0.00 0.00 0.00 0.00 0.00 0.00 0.00 0.00 0.01 0.03 0.03 0.02 0.02 0.03 0.18 0.02 0.08 0.03 0.03 0.06 0.04 0.08 0.03 0.01 0.01 0.03 0.02 0.01 0.03 0.07 0.12 0.11 0.11 0.15 0.13 0.17 0.29 0.18 0.22 0.19 0.30 0.22 0.21 0.08 0.15 0.12 0.15 0.05 0.06 0.02 0.01 0.00 0.00 0.00 0.02 0.02 0.03 0.00 0.00 0.00 0.00 0.01 0.01 0.00 0.03 0.01 0.01 0.02 0.00 0.00 0.00 0.00 0.00 0.01 0.00 0.00 0.01 0.01 0.04 0.09 0.16 0.18
0.00 0.00 0.00 0.00 0.00 0.00 0.00 0.00 0.00 0.00 0.00 0.00 0.01 0.02 0.01 0.01 0.05 0.07 0.10 0.09 0.07 0.04 0.05 0.03 0.04 0.04 0.02 0.00 0.03 0.07 0.02 0.02 0.03 0.05 0.04 0.14 0.15 0.25 0.17 0.26 0.12 0.17 0.14 0.09 0.10 0.13 0.20 0.13 0.11 0.12 0.11 0.02 0.02 0.00 0.00 0.00 0.02 0.01 0.00 0.01 0.04 0.07 0.03 0.00 0.02 0.05 0.01 0.00 0.01 0.01 0.01 0.01 0.00 0.00 0.00 0.00 0.00 0.01 0.01 0.01 0.00 0.00 0.00 0.03 0.04
0.00 0.00 0.00 0.00 0.00 0.00 0.00 0.00 0.00 0.00 0.00 0.02 0.02 0.01 0.02 0.04 0.14 0.02 0.16 0.03 0.15 0.02 0.02 0.04 0.08 0.07 0.03 0.03 0.01 0.02 0.06 0.05 0.07 0.09 0.14 0.14 0.10 0.13 0.13 0.14 0.10 0.14 0.18 0.23 0.13 0.14 0.11 0.16 0.14 0.06 0.05 0.13 0.08 0.01 0.01 0.01 0.03 0.00 0.05 0.15 0.13 0.05 0.09 0.06 0.03 0.02 0.01 0.01 0.00 0.02 0.00 0.01 0.00 0.00 0.00 0.00 0.01 0.01 0.01 0.02 0.00 0.00 0.00 0.00 0.02
0.00 0.00 0.00 0.00 0.00 0.00 0.00 0.00 0.00 0.00 0.01 0.01 0.00 0.00 0.04 0.03 0.06 0.04 0.04 0.02 0.05 0.03 0.02 0.05 0.06 0.04 0.02 0.03 0.02 0.04 0.03 0.06 0.04 0.07 0.07 0.07 0.10 0.13 0.14 0.12 0.09 0.05 0.07 0.09 0.20 0.16 0.09 0.11 0.07 0.11 0.04 0.10 0.06 0.02 0.01 0.00 0.00 0.00 0.04 0.03 0.05 0.09 0.21 0.07 0.02 0.02 0.02 0.03 0.00 0.01 0.01 0.00 0.01 0.01 0.01 0.02 0.00 0.01 0.01 0.01 0.05 0.01 0.05 0.01 0.00
0.00 0.00 0.00 0.00 0.00 0.00 0.00 0.00 0.00 0.00 0.01 0.00 0.01 0.01 0.02 0.01 0.03 0.05 0.08 0.03 0.08 0.02 0.02 0.02 0.03 0.03 0.06 0.02 0.05 0.07 0.05 0.06 0.03 0.03 0.07 0.04 0.07 0.11 0.04 0.09 0.14 0.07 0.11 0.12 0.08 0.06 0.04 0.12 0.08 0.06 0.06 0.01 0.07 0.08 0.02 0.00 0.00 0.00 0.00 0.01 0.00 0.14 0.04 0.04 0.06 0.20 0.02 0.01 0.01 0.00 0.01 0.01 0.01 0.01 0.01 0.00 0.00 0.00 0.01 0.01 0.00 0.01 0.03 0.00 0.03
0.00 0.00 0.01 0.00 0.00 0.00 0.00 0.00 0.00 0.00 0.00 0.00 0.01 0.01 0.01 0.01 0.04 0.03 0.06 0.03 0.05 0.02 0.03 0.06 0.02 0.01 0.06 0.03 0.05 0.07 0.05 0.04 0.11 0.03 0.06 0.05 0.09 0.08 0.06 0.06 0.07 0.07 0.05 0.03 0.05 0.09 0.11 0.07 0.03 0.02 0.03 0.03 0.02 0.04 0.06 0.01 0.00 0.01 0.00 0.00 0.00 0.01 0.00 0.02 0.09 0.09 0.10 0.03 0.05 0.02 0.02 0.01 0.01 0.00 0.00 0.00 0.00 0.01 0.00 0.00 0.00 0.01 0.03 0.00 0.00
0.00 0.00 0.01 0.00 0.00 0.00 0.00 0.00 0.00 0.00 0.00 0.00 0.00 0.00 0.00 0.02 0.05 0.03 0.07 0.02 0.03 0.02 0.04 0.05 0.00 0.02 0.03 0.02 0.02 0.06 0.02 0.04 0.03 0.02 0.09 0.03 0.04 0.09 0.09 0.13 0.06 0.11 0.03 0.10 0.09 0.11 0.12 0.05 0.04 0.06 0.04 0.03 0.03 0.02 0.15 0.04 0.04 0.03 0.01 0.01 0.01 0.00 0.00 0.00 0.01 0.04 0.04 0.11 0.08 0.02 0.01 0.01 0.01 0.00 0.00 0.01 0.00 0.01 0.01 0.00 0.00 0.00 0.02 0.05 0.00
0.00 0.00 0.00 0.00 0.01 0.00 0.00 0.00 0.00 0.00 0.00 0.00 0.00 0.00 0.00 0.02 0.06 0.05 0.02 0.01 0.05 0.03 0.02 0.01 0.01 0.01 0.03 0.03 0.03 0.03 0.01 0.03 0.03 0.04 0.03 0.05 0.02 0.07 0.09 0.07 0.05 0.07 0.01 0.03 0.06 0.05 0.05 0.06 0.05 0.04 0.03 0.03 0.04 0.03 0.02 0.05 0.04 0.09 0.01 0.09 0.00 0.01 0.00 0.01 0.00 0.00 0.07 0.06 0.07 0.04 0.03 0.01 0.02 0.02 0.03 0.00 0.00 0.01 0.00 0.00 0.03 0.00 0.01 0.01 0.00
0.01 0.01 0.00 0.00 0.01 0.00 0.00 0.00 0.00 0.00 0.00 0.00 0.00 0.00 0.01 0.02 0.02 0.03 0.07 0.02 0.02 0.03 0.08 0.04 0.04 0.02 0.03 0.02 0.06 0.03 0.01 0.04 0.06 0.02 0.02 0.06 0.02 0.05 0.07 0.07 0.04 0.06 0.01 0.25 0.06 0.05 0.04 0.03 0.03 0.05 0.04 0.04 0.03 0.02 0.05 0.01 0.01 0.03 0.01 0.02 0.01 0.01 0.01 0.01 0.01 0.01 0.04 0.00 0.02 0.08 0.04 0.05 0.05 0.02 0.01 0.02 0.02 0.01 0.01 0.01 0.00 0.01 0.01 0.01 0.01
0.02 0.04 0.04 0.02 0.02 0.05 0.00 0.01 0.00 0.00 0.00 0.00 0.00 0.01 0.00 0.01 0.01 0.18 0.07 0.07 0.01 0.03 0.03 0.02 0.06 0.02 0.05 0.02 0.03 0.07 0.12 0.02 0.03 0.04 0.05 0.02 0.02 0.03 0.06 0.03 0.09 0.07 0.07 0.10 0.02 0.03 0.06 0.08 0.02 0.05 0.04 0.07 0.04 0.10 0.03 0.02 0.02 0.01 0.01 0.00 0.00 0.01 0.00 0.02 0.02 0.02 0.02 0.02 0.02 0.06 0.04 0.05 0.03 0.01 0.04 0.01 0.02 0.02 0.02 0.02 0.02 0.00 0.01 0.01 0.01